Regional Weather Roundup
Issued by NWS

Home | Current Version | Previous Version | Text Only | Print | Product List | Glossary On
Versions: 1 2 3 4 5 6 7 8 9 10 11 12 13 14 15 16 17 18 19 20 21 22 23 24 25 26 27 28 29 30 31 32 33 34 35 36 37 38 39 40 41 42 43 44 45 46 47 48 49 50
000
ASUS44 KFWD 211810
RWRTX
NORTH TEXAS HOURLY WEATHER ROUNDUP
NATIONAL WEATHER SERVICE FORT WORTH TX
1200 PM CST SAT JAN 21 2017

NOTE: "FAIR" INDICATES FEW OR NO CLOUDS BELOW 12,000 FEET WITH NO
SIGNIFICANT WEATHER AND/OR OBSTRUCTIONS TO VISIBILITY.

TXZ118-119-211900-
DALLAS/FORT WORTH METROPLEX

CITY           SKY/WX    TMP DP  RH WIND       PRES   REMARKS
DFW AIRPORT    CLOUDY    65  55  70 SE15      29.46F
6HR MIN TEMP:  50; 6HR MAX TEMP:  65;

DALLAS LOVE    PTSUNNY   63  55  75 SE9       29.48F
6HR MIN TEMP:  52; 6HR MAX TEMP:  65;

FTW MEACHAM    PTSUNNY   63  51  65 SE9       29.47F
6HR MIN TEMP:  47; 6HR MAX TEMP:  63;

DAL-EXECUTIVE  CLOUDY    62  58  86 SE8       29.49F
6HR MIN TEMP:  49; 6HR MAX TEMP:  62;

FTW-ALLIANCE   CLOUDY    63  50  62 SE10      29.47F
6HR MIN TEMP:  48; 6HR MAX TEMP:  63;

FTW-NAS-JRB    PTSUNNY   65  51  60 W6        29.49F
6HR MIN TEMP:  46; 6HR MAX TEMP:  65;

FTW-SPINKS     PTSUNNY   63  54  72 S8        29.51F
ARLINGTON      CLOUDY    62  55  77 SE10      29.48F
6HR MIN TEMP:  42; 6HR MAX TEMP:  62;

GRAND PRAIRIE  SUNNY     61  54  77 SE6       29.51F
ADDISON        MOSUNNY   64  57  77 SE15G22   29.50F
MESQUITE       CLOUDY    57  57 100 SE13      29.52F FOG
LANCASTER      CLOUDY    60  58  93 SE12G17   29.52F
6HR MIN TEMP:  44; 6HR MAX TEMP:  60;

$$

TXZ091>094-102>105-117-120-121-131>134-211900-
NORTH CENTRAL TEXAS

CITY           SKY/WX    TMP DP  RH WIND       PRES   REMARKS
SHRMAN/DENISON CLOUDY    65  53  66 SE12      29.50F
6HR MIN TEMP:  48; 6HR MAX TEMP:  65;

GAINESVILLE    PTSUNNY   61  49  65 SW9       29.50F
6HR MIN TEMP:  43; 6HR MAX TEMP:  61;

BOWIE          CLOUDY    59  40  49 NW5       29.51F
6HR MIN TEMP:  43; 6HR MAX TEMP:  61;

BRIDGEPORT     CLOUDY    62  47  57 CALM      29.50F
6HR MIN TEMP:  42; 6HR MAX TEMP:  62;

DECATUR        MOSUNNY   61  47  59 SW5       29.48F
6HR MIN TEMP:  49; 6HR MAX TEMP:  61;

DENTON         CLOUDY    62  52  69 SE10      29.46F
6HR MIN TEMP:  40; 6HR MAX TEMP:  62;

MCKINNEY       CLOUDY    61  57  87 SE15      29.50F
6HR MIN TEMP:  45; 6HR MAX TEMP:  62;

BONHAM         MOSUNNY   63  55  77 S12       29.52F
GREENVILLE     CLOUDY    59  57  94 SE9       29.53F
ROCKWALL       CLOUDY    59  58  96 S7G17     29.52F
6HR MIN TEMP:  53; 6HR MAX TEMP:  60;

TERRELL        LGT RAIN  58  57  97 CALM      29.54F FOG
6HR MIN TEMP:  49; 6HR MAX TEMP:  58; 6HR PCP: TRACE;

WAXAHACHIE     PTSUNNY   60  60 100 SE8       29.52F FOG
6HR MIN TEMP:  46; 6HR MAX TEMP:  61;

CLEBURNE       CLOUDY    63  57  82 S13       29.53R
GRANBURY       CLOUDY    67  50  53 E7        29.51F
6HR MIN TEMP:  44; 6HR MAX TEMP:  67;

$$

TXZ083>090-098>101-113>116-127>130-139>142-154-155-211900-
WESTERN NORTH TEXAS

CITY           SKY/WX    TMP DP  RH WIND       PRES   REMARKS
WICHITA FALLS  CLOUDY    61  43  51 E8        29.47F
6HR MIN TEMP:  43; 6HR MAX TEMP:  62; 6HR PCP: TRACE;

WF-KICKAPOO    MOSUNNY   60  44  56 E13       29.49F
6HR MIN TEMP:  46; 6HR MAX TEMP:  60;

VERNON         CLOUDY    54  37  51 SE9       29.49F
6HR MIN TEMP:  33; 6HR MAX TEMP:  71;

ABILENE        CLOUDY    61  46  57 S9        29.51F
6HR MIN TEMP:  46; 6HR MAX TEMP:  62;

ABILENE-DYESS  PTSUNNY   63  42  45 W6        29.50F
6HR MIN TEMP:  46; 6HR MAX TEMP:  64;

GRAHAM         MOSUNNY   64  39  39 CALM      29.48F
BRECKENRIDGE   CLOUDY    67  47  49 SW9       29.49F HAZE
6HR MIN TEMP:  47; 6HR MAX TEMP:  68;

CISCO          MOSUNNY   66  48  52 SW15      29.53F
RANGER         MOSUNNY   63  46  55 SW10      29.51F
MINERAL WELLS  CLOUDY    63  44  50 S7        29.48F
6HR MIN TEMP:  42; 6HR MAX TEMP:  63;

STEPHENVILLE   PTSUNNY   67  47  48 SW6       29.54F
6HR MIN TEMP:  45; 6HR MAX TEMP:  67;

COMANCHE       MOSUNNY   65  49  57 W7        29.53F
6HR MIN TEMP:  48; 6HR MAX TEMP:  67;

BROWNWOOD      PTSUNNY   63  48  59 S7        29.51F
COLEMAN        CLOUDY    64  48  55 SW12      29.53F
$$

TXZ143>147-156>162-174-175-211900-
CENTRAL TEXAS

CITY           SKY/WX    TMP DP  RH WIND       PRES   REMARKS
WACO           CLOUDY    60  59  96 S7        29.54F FOG
6HR MIN TEMP:  53; 6HR MAX TEMP:  60;

WACO-TSTC      CLOUDY    61  61 100 S9        29.54S FOG
WACO-MCGREGOR  CLOUDY    60  58  92 SW13      29.54F
6HR MIN TEMP:  54; 6HR MAX TEMP:  60; 6HR PCP: TRACE;

HILLSBORO      PTSUNNY   63  60  90 S18       29.53F
6HR MIN TEMP:  53; 6HR MAX TEMP:  63;

MEXIA          CLOUDY    62  62  97 S14       29.54F
6HR MIN TEMP:  53; 6HR MAX TEMP:  62;

HEARNE         CLOUDY    69  62  78 S13       29.56F
6HR MIN TEMP:  59; 6HR MAX TEMP:  69;

CAMERON          N/A     67  60  78 SW12      29.55F
6HR MIN TEMP:  58; 6HR MAX TEMP:  67;

TEMPLE         PTSUNNY   62  60  93 S15       29.54F
6HR MIN TEMP:  51; 6HR MAX TEMP:  63; 6HR PCP: TRACE;

KILLEEN        PTSUNNY   64  58  79 S9        29.52F
6HR MIN TEMP:  51; 6HR MAX TEMP:  64;

KILLEEN-SKYLRK CLOUDY    65  57  75 SW9       29.54F
6HR MIN TEMP:  52; 6HR MAX TEMP:  65;

FORT HOOD      CLOUDY    64  57  80 SW8       29.50F
6HR MIN TEMP:  51; 6HR MAX TEMP:  64;

GATESVILLE     CLOUDY    63  55  77 SW3       29.56F
HAMILTON       CLOUDY    63  51  63 S7        29.54F
6HR MIN TEMP:  49; 6HR MAX TEMP:  63;

LAMPASAS       PTSUNNY   65  56  70 S3        29.52F
6HR MIN TEMP:  50; 6HR MAX TEMP:  65;

$$

TXZ095>097-106>112-122>126-135>138-148>153-164>167-211900-
EAST TEXAS

CITY           SKY/WX    TMP DP  RH WIND       PRES   REMARKS
PARIS          CLOUDY    59  55  88 SE8       29.56F
6HR MIN TEMP:  43; 6HR MAX TEMP:  59;

SULPHUR SPRNGS FOG       59  59 100 CALM      29.59F VSB 1/2
6HR MIN TEMP:  53; 6HR MAX TEMP:  59;

MOUNT PLEASANT CLOUDY    59  59 100 S3        29.59F
6HR MIN TEMP:  47; 6HR MAX TEMP:  60;

GILMER         CLOUDY    61  60  94 CALM      29.57F
6HR MIN TEMP:  47; 6HR MAX TEMP:  61;

MINEOLA        CLOUDY    61  59  94 E6        29.55F FOG
TYLER          CLOUDY    61  60  97 S12       29.56F
6HR MIN TEMP:  55; 6HR MAX TEMP:  61;

LONGVIEW       CLOUDY    68  63  84 S13       29.54F
6HR MIN TEMP:  50; 6HR MAX TEMP:  68;

MARSHALL       PTSUNNY   65  60  83 S8        29.59F
6HR MIN TEMP:  50; 6HR MAX TEMP:  65;

ATHENS         CLOUDY    59  59 100 SE7       29.51F FOG
PALESTINE      CLOUDY    63  63 100 S8        29.57F FOG
JACKSONVILLE   CLOUDY    63  62  98 S7G16     29.57F
HENDERSON      PTSUNNY   65  62  90 CALM      29.56F
CENTER         CLOUDY    71  65  83 SE5       29.58F
6HR MIN TEMP:  52; 6HR MAX TEMP:  71;

NACOGDOCHES    CLOUDY    66  63  88 S9G16     29.56F VSB 1/2
6HR MIN TEMP:  54; 6HR MAX TEMP:  66;

LUFKIN         CLOUDY    65  63  93 S10       29.58F FOG
6HR MIN TEMP:  54; 6HR MAX TEMP:  65;

$$

SUPPLEMENTAL OBSERVATIONS (CENTRAL)

CITY           SKY/WX    TMP DP  RH WIND       PRES   REMARKS
CADDO GRASSLND   N/A     63  55  77 S6G15       N/A
PAT MAYSE LAKE   N/A     57  55  94 SE8         N/A
GREENVILLE       N/A     61  55  82 SE5         N/A
CEDAR HILL       N/A     64  57  77 SE9G17      N/A
MCGREGOR         N/A     61  59  94 SW6G14      N/A
TEMPLE           N/A     64  61  88 S13         N/A
$$

SUPPLEMENTAL OBSERVATIONS (WEST)

CITY           SKY/WX    TMP DP  RH WIND       PRES   REMARKS
MILLERS CREEK    N/A     59  43  55 S8G2


USA.gov is the U.S. government's official web portal to all federal, state and local government web resources and services.